This is the latest recevied weather packets stored in our database for station/object JM1YTT-13. If no packets are shown the sender has not sent any weather packets the latest 10 day(s).
| Time | Temp. | Humidity | Pressure | Rain* | Wind** | Luminosity | Snow |
|---|---|---|---|---|---|---|---|
| 1777687990 | 24.44° C | 41% | 1002.4 hPa | 0 mm | - | - | - |
| 1777686190 | 23.89° C | 41% | 1002.3 hPa | 0 mm | - | - | - |
| 1777684390 | 23.33° C | 45% | 1002.2 hPa | 0 mm | - | - | - |
| 1777682590 | 22.22° C | 48% | 1001.9 hPa | 0 mm | - | - | - |
| 1777680790 | 22.22° C | 45% | 1001.6 hPa | 0 mm | - | - | - |
| 1777678990 | 21.67° C | 44% | 1001.2 hPa | 0 mm | - | - | - |
| 1777677190 | 20.56° C | 46% | 1000.6 hPa | 0 mm | - | - | - |
| 1777675390 | 19.44° C | 45% | 1000.1 hPa | 0 mm | - | - | - |
| 1777673590 | 18.33° C | 52% | 999.6 hPa | 0 mm | - | - | - |
| 1777671790 | 16.67° C | 57% | 999 hPa | 0 mm | - | - | - |
| 1777669990 | 16.11° C | 59% | 998.7 hPa | 0 mm | - | - | - |
| 1777668190 | 14.44° C | 68% | 997.8 hPa | 0 mm | - | - | - |
| 1777666390 | 13.89° C | 79% | 997.1 hPa | 0 mm | - | - | - |
| 1777664590 | 13.89° C | 81% | 996.3 hPa | 0 mm | - | - | - |
| 1777662790 | 13.89° C | 80% | 995.5 hPa | 0 mm | - | - | - |
| 1777660990 | 14.44° C | 77% | 994.8 hPa | 0 mm | - | - | - |
| 1777659190 | 14.44° C | 79% | 993.8 hPa | 0 mm | - | - | - |
| 1777657390 | 14.44° C | 78% | 993.8 hPa | 0 mm | - | - | - |
| 1777655599 | 14.44° C | 78% | 993.4 hPa | 0 mm | - | - | - |
| 1777653790 | 13.33° C | 85% | 993.2 hPa | 0 mm | - | - | - |
| 1777651990 | 13.33° C | 83% | 993.4 hPa | 0 mm | - | - | - |
| 1777650190 | 13.33° C | 83% | 993.4 hPa | 0 mm | - | - | - |
| 1777648390 | 13.89° C | 82% | 993.5 hPa | 0 mm | - | - | - |
| 1777646590 | 14.44° C | 79% | 993 hPa | 0 mm | - | - | - |
| 1777644790 | 15° C | 79% | 993.4 hPa | 0 mm | - | - | - |
* Rain latest hour (hover to see other rain measurements)
** Current wind speed in m/s (hover to see current wind gust speed)